Theta_e
296 297 296 296 296 297 297 297 297 298 298 299 300 300 300 300 299 301 301 307 309 312 315 317 319 322 327 330 336 336 336 337 337 337 337 336 335 334 333 335 334 336 336
296 296 296 296 296 297 297 297 297 297 297 298 298 299 299 299 300 300 301 301 307 309 312 314 316 318 320 322 325 334 335 337 336 336 335 336 335 334 333 334 334 334 336
297 296 295 295 295 296 297 296 296 297 296 297 296 298 298 298 299 299 300 300 302 306 308 311 313 315 317 319 320 323 329 335 336 335 335 335 335 334 333 333 334 333 335
298 295 295 294 295 296 296 295 295 294 294 294 295 295 296 297 298 298 299 299 300 300 303 307 309 311 313 315 318 320 322 330 333 334 334 334 334 334 333 332 333 333 334
298 295 295 295 296 295 294 294 293 293 292 292 293 293 293 294 295 297 297 298 298 300 300 304 307 308 309 312 315 316 319 321 328 331 333 333 333 334 333 332 332 333 333
297 295 294 294 295 294 293 293 292 292 291 290 292 292 292 293 294 294 295 298 298 298 299 300 300 301 306 309 312 315 316 317 320 325 329 332 331 332 333 333 332 333 333
297 295 294 294 294 293 292 292 292 290 289 290 288 289 289 291 292 292 293 294 294 296 297 297 296 298 300 305 308 312 315 318 319 321 325 327 330 327 328 332 333 332 332
296 295 294 293 293 291 291 290 290 289 289 289 286 286 284 287 291 292 292 292 292 294 294 295 295 295 296 297 299 306 309 315 318 319 322 326 327 330 329 328 332 332 332
296 295 294 293 292 291 289 289 289 288 286 288 288 286 283 282 286 289 291 291 291 291 292 293 294 294 296 295 299 300 303 306 310 317 319 322 326 327 327 328 329 332 332
294 295 294 292 291 290 289 288 290 288 287 285 287 290 288 289 285 283 287 289 291 290 290 290 292 293 294 295 296 298 300 301 306 310 315 318 320 322 324 327 327 326 330
294 293 293 291 290 289 288 288 287 287 287 286 285 285 286 288 288 285 282 284 287 288 289 289 289 289 292 292 293 295 298 300 302 304 306 312 318 320 322 324 325 323 324
291 291 292 290 289 288 288 288 287 287 286 286 286 286 286 286 285 285 284 284 284 286 288 289 288 288 289 290 291 293 297 298 300 302 305 310 313 317 320 322 324 324 326
289 289 289 289 288 288 288 288 287 286 286 285 286 286 288 288 289 288 285 282 281 283 284 285 286 286 288 289 291 292 294 297 300 301 303 305 308 315 317 320 323 324 325
288 289 289 288 288 288 288 288 287 286 286 286 285 286 288 289 288 287 284 282 279 280 281 281 285 285 286 287 289 291 291 295 295 299 301 304 310 313 315 318 320 323 322
289 289 288 288 288 288 287 287 286 285 286 286 286 287 288 287 287 287 286 284 281 277 277 281 281 285 285 286 288 288 289 291 293 294 298 303 309 311 314 316 318 320 322
289 288 288 287 287 287 287 286 285 286 285 285 285 287 286 286 286 286 285 285 284 281 277 282 282 283 284 286 287 287 288 290 293 294 297 304 306 307 309 314 316 318 319
288 287 287 287 287 287 286 285 285 284 282 283 286 286 284 283 282 283 284 284 283 282 278 280 281 283 283 284 285 287 288 289 292 293 296 300 302 303 305 308 312 314 316
287 287 287 287 287 286 285 284 282 282 282 285 286 282 281 283 282 283 283 283 281 282 281 277 279 281 282 284 285 285 287 291 291 293 297 299 300 301 302 305 307 309 311
286 287 287 286 286 285 283 282 282 282 285 286 282 280 281 283 282 283 283 281 280 281 280 279 279 281 283 285 285 286 287 288 291 292 294 296 296 298 300 302 304 304 304
286 286 286 285 284 283 282 282 282 283 286 283 281 280 281 282 281 281 284 283 282 281 280 278 280 282 283 285 285 284 284 285 285 288 288 290 291 294 297 300 301 300 301
285 285 285 284 282 282 282 281 282 285 283 281 280 279 280 282 282 285 285 283 283 282 281 280 280 281 281 283 283 285 284 285 284 285 286 286 287 290 291 297 296 297 301
284 284 283 282 281 282 284 286 287 284 281 279 276 277 278 280 282 286 287 287 286 283 282 281 282 282 283 284 285 284 284 283 282 285 284 284 286 286 287 290 297 300 301
283 282 278 275 273 275 283 286 287 284 275 273 272 274 275 279 280 284 286 287 285 286 288 285 283 283 284 285 285 284 282 280 280 281 283 280 284 282 286 289 297 300 301
280 276 273 271 269 272 284 286 287 280 269 269 268 271 272 274 277 283 285 285 284 285 285 284 284 284 285 285 284 283 281 281 280 279 281 274 277 274 277 283 296 301 301
282 279 272 270 269 271 283 285 282 272 270 269 269 270 272 278 282 285 283 283 284 282 283 284 284 284 285 286 285 283 280 278 275 275 278 276 277 275 274 274 284 293 300
281 279 274 272 272 273 281 285 282 270 268 266 267 269 277 280 282 285 282 282 281 279 279 275 275 277 278 279 281 279 280 277 276 275 278 275 274 274 273 273 274 281 286
Wind_Speed
1 2 2 3 3 4 3 4 4 4 5 6 6 6 7 7 7 5 4 13 18 22 23 24 25 26 29 29 26 26 28 28 27 27 28 28 28 26 26 24 23 22 21
2 0 1 2 3 3 3 4 4 4 4 4 6 6 7 7 8 8 6 7 17 22 23 24 25 26 27 30 31 29 28 30 29 28 29 29 29 29 28 26 25 24 23
3 2 1 2 3 4 5 4 4 4 4 4 6 7 7 8 8 9 8 7 9 16 21 23 25 26 27 28 30 31 31 29 30 30 29 31 31 30 29 28 26 26 25
3 3 1 2 2 3 3 3 3 4 4 4 6 7 7 7 10 10 9 8 8 8 12 20 23 25 26 28 29 30 32 31 28 30 30 31 32 32 31 31 29 28 26
4 3 1 2 3 3 3 4 3 3 4 6 7 8 8 8 8 9 10 9 9 9 8 15 21 22 26 28 29 30 31 32 31 29 29 31 30 33 35 34 32 30 29
5 3 1 2 3 3 4 4 4 2 3 4 8 8 8 7 7 6 8 7 7 9 8 9 9 9 19 25 27 29 30 31 32 30 29 30 30 30 33 35 32 32 31
4 3 2 2 2 3 3 4 3 5 3 4 4 6 4 7 6 4 5 4 7 8 7 5 6 7 9 22 25 26 29 30 30 30 31 29 32 31 30 43 34 34 33
4 3 4 2 0 0 3 3 4 3 3 4 3 3 7 5 2 14 10 6 7 8 8 8 10 13 12 9 14 27 28 29 31 31 29 30 32 31 32 30 38 37 34
4 3 4 4 2 1 1 2 2 2 3 2 2 0 5 4 16 1 14 7 5 4 10 13 12 15 10 12 15 17 25 28 31 31 31 29 29 28 31 32 29 40 35
3 4 4 4 3 2 1 2 1 1 1 4 3 2 4 6 5 15 2 1 12 9 12 11 11 12 13 12 17 19 23 29 29 29 28 31 31 30 28 32 28 32 32
3 3 4 4 4 2 2 3 3 2 2 3 3 2 4 6 9 9 20 17 13 10 10 12 12 12 12 13 12 15 23 28 29 28 28 25 27 29 27 26 31 27 29
3 3 4 4 4 3 2 2 3 3 4 4 4 4 7 7 9 10 13 19 22 15 12 11 9 10 12 11 16 24 24 27 30 29 27 26 22 23 27 25 27 39 44
3 4 4 4 3 2 2 2 3 4 4 4 5 6 8 9 9 10 10 15 18 15 13 10 10 10 10 10 10 19 21 26 29 28 26 25 26 20 22 24 24 21 38
4 4 4 4 2 1 1 2 3 4 5 4 7 9 9 8 9 9 10 13 19 17 13 16 8 8 8 10 14 23 15 21 27 28 29 27 26 18 19 21 23 22 24
3 5 5 4 2 2 2 3 3 4 4 5 7 10 8 8 9 9 9 10 13 20 19 13 13 9 9 11 13 14 14 19 25 28 31 28 18 14 17 19 19 15 22
5 5 5 4 3 2 3 3 3 4 5 5 7 10 11 8 9 8 9 9 10 14 21 12 12 13 13 11 14 16 14 20 18 22 30 24 12 13 11 11 15 16 16
6 6 6 4 3 2 3 3 4 5 5 8 9 10 11 12 8 9 8 9 10 10 14 14 12 14 13 14 14 12 11 12 9 17 26 11 8 8 11 12 9 13 14
6 6 6 5 4 3 2 3 5 5 7 10 10 9 11 9 11 10 8 8 10 10 10 16 15 13 14 14 13 13 11 8 9 17 19 12 9 7 8 11 10 9 12
6 6 6 5 4 2 2 3 4 5 8 9 9 10 12 12 10 9 9 7 7 7 8 10 14 12 12 9 10 10 10 11 8 10 11 8 7 10 9 10 10 10 9
7 6 6 5 3 2 3 3 4 5 7 9 10 10 11 11 10 11 8 11 8 8 9 9 11 11 9 11 8 8 7 2 2 3 5 4 5 7 10 11 9 7 9
6 6 6 4 3 3 3 3 4 4 4 10 10 10 10 12 17 15 8 9 10 9 10 11 11 10 10 10 10 5 2 0 1 3 2 5 3 3 2 8 7 7 8
7 6 6 5 5 3 4 5 4 2 4 6 8 9 9 12 12 18 17 16 13 10 12 10 11 11 10 9 6 3 2 2 2 4 3 6 6 6 6 3 6 8 10
6 6 5 4 5 4 5 6 6 1 3 5 6 7 9 7 11 11 16 15 12 14 16 11 12 11 8 4 5 3 4 3 3 5 3 6 8 10 9 11 11 9 10
7 5 5 5 4 4 6 6 7 2 3 5 5 6 7 9 9 11 10 9 8 6 7 5 8 10 8 6 5 3 3 3 4 7 6 4 6 8 10 13 22 7 10
7 6 4 5 4 5 6 5 5 2 4 6 4 6 6 9 13 16 8 9 5 6 10 14 13 16 17 19 14 4 5 4 5 5 8 2 4 9 11 14 14 34 15
6 5 5 6 6 6 8 6 4 3 3 3 4 6 11 11 12 13 5 7 5 4 6 8 10 11 13 13 18 9 5 5 2 3 6 4 5 4 7 10 13 15 17
Wind_Direction
73 9 343 342 343 343 343 332 329 324 323 320 312 305 302 296 285 283 275 280 286 293 293 291 289 286 283 279 277 257 246 243 235 227 223 223 222 221 220 219 221 225 225
138 134 330 340 337 331 319 324 325 330 319 315 307 295 288 279 279 275 275 279 282 288 289 289 288 285 282 280 278 277 259 244 241 237 230 222 221 221 218 219 216 222 223
154 138 9 351 324 323 326 342 335 334 317 314 294 294 288 281 284 280 280 277 282 280 281 286 288 287 286 281 279 277 274 261 245 238 234 228 222 220 218 216 216 220 222
149 119 85 315 318 336 342 345 341 323 316 318 308 300 292 292 288 285 279 277 275 278 284 285 287 287 286 284 281 277 275 274 259 243 239 233 225 219 218 216 216 216 219
141 128 100 328 4 360 358 349 330 335 322 321 313 304 294 286 289 286 285 279 276 277 280 283 286 285 286 287 285 280 275 272 272 257 248 243 231 223 218 213 212 214 214
143 121 81 23 19 7 355 346 315 310 282 303 308 295 279 280 276 278 281 285 288 287 285 284 289 291 289 290 288 284 280 274 269 271 257 249 244 234 225 217 210 211 212
148 141 120 46 18 23 345 331 317 323 327 331 314 301 284 271 273 289 274 285 296 287 277 294 303 307 312 307 308 302 290 280 271 264 265 261 248 235 234 224 209 211 212
178 172 142 145 108 19 352 351 17 322 310 20 339 304 333 329 11 312 283 280 281 291 304 313 301 304 302 297 299 302 297 293 282 274 269 259 256 253 236 269 209 209 210
188 177 158 160 180 158 336 335 314 6 311 324 42 234 336 313 330 277 294 280 280 304 301 296 288 293 291 299 296 301 301 304 301 291 270 266 264 258 243 232 240 210 206
199 181 177 167 171 165 266 273 269 243 225 285 310 221 222 279 314 315 358 343 304 308 305 298 297 298 300 298 294 290 296 299 299 303 291 268 266 263 254 244 230 227 226
200 190 174 160 170 177 223 246 280 268 227 245 227 293 263 268 258 257 288 302 295 291 297 290 283 287 290 289 290 288 289 293 292 296 307 287 270 259 252 245 228 224 252
211 206 172 172 185 190 216 260 268 262 259 248 243 251 267 280 286 275 276 292 296 303 293 290 292 290 287 285 285 287 289 289 291 290 287 298 275 265 254 251 242 216 223
213 218 190 197 197 189 243 271 291 275 267 260 257 262 270 270 272 273 286 289 292 296 292 280 280 275 281 286 284 290 293 299 293 290 292 290 291 265 253 252 238 224 225
203 204 207 203 209 241 294 293 273 262 261 255 264 274 275 282 284 278 275 291 294 292 292 298 282 271 281 285 282 291 290 288 302 303 296 280 277 267 244 246 239 223 211
199 212 206 216 222 261 285 288 273 278 273 272 273 281 279 284 281 273 268 266 280 298 296 305 297 281 275 279 280 284 286 289 290 291 291 278 273 283 255 235 235 227 226
199 207 217 218 229 255 282 289 286 274 279 282 286 287 291 291 292 287 280 273 271 283 293 307 305 297 289 283 280 280 280 279 277 293 296 265 267 273 296 247 226 232 234
193 207 213 215 231 268 304 302 284 283 283 287 294 289 299 296 286 281 276 276 274 273 279 294 297 295 293 282 281 277 273 275 284 286 286 278 253 259 269 269 251 240 235
195 205 207 210 224 248 292 297 298 290 286 301 297 305 294 290 288 291 289 289 294 289 281 294 297 293 290 285 274 272 278 269 270 271 276 269 272 259 278 281 259 262 239
198 207 205 209 215 249 288 279 269 282 292 302 311 297 294 293 295 294 300 302 293 291 285 284 294 292 285 285 279 269 264 270 258 288 288 284 263 265 267 277 267 252 228
194 204 206 207 209 223 261 271 281 283 306 317 299 293 289 290 297 299 304 317 291 293 293 283 283 295 294 298 275 276 282 237 304 276 299 334 324 282 257 256 266 254 236
199 198 193 204 216 213 229 239 242 292 328 309 293 294 293 295 298 305 311 314 298 289 296 294 290 293 302 310 311 305 282 153 261 354 341 12 347 343 301 275 266 251 249
196 190 196 201 221 222 234 258 288 271 292 289 293 299 299 296 307 324 325 312 305 299 293 290 296 299 297 305 303 306 320 345 339 21 9 19 6 19 352 316 256 217 239
184 194 183 187 226 228 251 255 281 212 263 271 284 292 304 302 311 320 334 301 302 298 300 313 312 313 292 293 303 323 359 37 17 353 355 34 5 36 6 357 303 223 215
189 183 202 209 213 251 248 260 278 178 265 265 269 279 290 299 303 331 334 313 302 328 325 335 350 352 8 0 5 19 18 31 37 25 8 51 351 35 11 12 20 209 209
184 193 196 190 198 250 244 262 284 189 269 269 288 293 293 296 311 339 341 324 337 7 348 353 13 17 25 40 43 35 25 28 31 14 16 56 50 66 42 17 14 42 81
185 191 215 212 213 229 236 232 250 164 276 275 297 293 311 310 330 343 353 331 331 346 3 351 348 8 11 24 41 44 50 60 28 23 9 48 349 337 43 11 21 30 54